Regional Weather Roundup
Issued by NWS

Home | Current Version | Previous Version | Graphics & Text | Print | Product List | Glossary On
Versions: 1 2 3 4 5 6 7 8 9 10 11 12 13 14 15 16 17 18 19 20 21 22 23 24 25 26 27
000
ASUS45 KBOU 150110
RWRCO

WEATHER ROUNDUP FOR COLORADO
NATIONAL WEATHER SERVICE DENVER/BOULDER CO
600 PM MST THU DEC 14 2017

NOTE: "FAIR" INDICATES FEW OR NO CLOUDS BELOW 12000 FEET WITH NO
SIGNIFICANT WEATHER AND/OR OBSTRUCTIONS TO VISIBILITY.

COZ001>005-013-030-031-150200-
...NORTHWEST COLORADO...

CITY           SKY/WX    TMP DP  RH WIND       PRES   REMARKS
CRAIG          FAIR      17  10  74 CALM      30.32S
HAYDEN         FAIR      22  14  71 S5        30.33S WCI  16
MEEKER         FAIR      22  15  75 NE12      30.31S WCI  10
RABBIT EARS PA CLOUDY    12  10  92 W9G20     30.24R FOG     WCI   0
STEAMBOAT SPGS FAIR      24  16  69 SE3       30.31S
WALDEN         FAIR      12   5  73 NE7       30.28S WCI   2
$$

COZ006>008-011-150200-
...WEST CENTRAL VALLEYS...

CITY           SKY/WX    TMP DP  RH WIND       PRES   REMARKS
GRAND JUNCTION FAIR      38  16  40 NE13      30.31R
MONTROSE       FAIR      33  12  41 CALM      30.32R
EAGLE          FAIR      27  13  55 SE5       30.34R WCI  22
RIFLE          FAIR      33  12  41 W6        30.34R WCI  28
DELTA          FAIR      41  11  29 W7        30.30R
NUCLA          FAIR      39   9  28 S5        30.31
$$

COZ017>023-064>068-150200-
...SOUTHWEST COLORADO...

CITY           SKY/WX    TMP DP  RH WIND       PRES   REMARKS
DURANGO        FAIR      31  20  63 E7        30.17R WCI  24
CORTEZ         FAIR      40  12  32 NW10      30.22R
PAGOSA SPRINGS FAIR      32  20  60 CALM      30.20R
TELLURIDE      FAIR      29  -2  25 N6        30.26R WCI  23
WOLF CREEK PAS FAIR      16   1  53 NW8       30.25S WCI   5
$$

COZ009-010-012-014-032>034-037-058>063-150200-
...CENTRAL COLORADO...

CITY           SKY/WX    TMP DP  RH WIND       PRES   REMARKS
ASPEN          FAIR      24  14  65 N3        30.27R
BUENA VISTA    FAIR      26   4  39 NW18      30.22R WCI  13
COPPER MTN     NOT AVBL
BERTHOUD PASS  CLOUDY     3  -8  60 NW28G35   30.15R WCI -21
COTTONWOOD PAS FAIR      27   3  36 CALM      30.20R
GUNNISON       FAIR      26  13  57 S3        30.25R
KREMMLING      MOCLDY    30  16  55 NW5       30.31R WCI  25
LEADVILLE      FAIR      13   3  64 NE9       30.22R WCI   1
MONARCH PASS   FAIR      12   1  62 W9        30.29S WCI   0
SALIDA         FAIR      31   4  32 NW6       30.29R WCI  25
SUNLIGHT       FAIR      12   5  73 N8        30.32R WCI   1
WILKERSON PASS FAIR      10   3  72 N12G17    30.18S WCI  -4
$$

COZ069>075-150200-
...SAN LUIS VALLEY/SANGRE DE CRISTO MOUNTAINS...

CITY           SKY/WX    TMP DP  RH WIND       PRES   REMARKS
ALAMOSA        FAIR      19  16  88 W9        30.18R WCI   8
DEL NORTE      FAIR      24  21  87 W3        30.20R
LA VETA PASS   CLOUDY    18  14  86 N6G17       N/A  FOG     WCI   9
SAGUACHE       FAIR      30   9  40 N10       30.20R WCI  21
$$

COZ035-036-038>040-150200-
...NORTHERN COLORADO FRONT RANGE...

CITY           SKY/WX    TMP DP  RH WIND       PRES   REMARKS
DENVER INTL AP FAIR      29  17  61 SW6       30.23R WCI  23
DMNS CITY PARK NOT AVBL
AURORA         PTCLDY    23  20  87 S6        30.24R WCI  16
FRONT RANGE AP PTCLDY    28  23  80 S6        30.24R WCI  22
ERIE MUNI ARPT FAIR      31  22  68 SE7       30.29R WCI  25
BOULDER MUN AP FAIR      32  23  69 SE6       30.22S WCI  26
CENTENNIAL     FAIR      26  21  81 S6        30.23S WCI  19
BROOMFIELD     PTCLDY    30  21  69 SE5       30.23R WCI  25
FORT COLLINS   FAIR      30  17  58 NE9       30.22R WCI  22
LONGMONT       FAIR      33  24  69 SW7       30.25R WCI  26
$$

COZ041-046-047-076>085-087-088-150200-
...PIKES PEAK/PALMER DIVIDE AND SOUTHERN FOOTHILLS...

CITY           SKY/WX    TMP DP  RH WIND       PRES   REMARKS
COLO. SPRINGS  FAIR      28  19  69 VRB6      30.23S WCI  22
A. F. ACADEMY  FAIR      21  17  84 N8        30.20F WCI  12
SCHRIEVER AFB  FAIR      23  19  84 N5        30.23S WCI  17
CHEYENNE MTN   FAIR      25  21  86 CALM      30.16R
ELLICOTT         N/A    N/A N/A N/A CALM      30.21S
FALCON         FAIR      19  18  94 CALM      30.22R
FORT CARSON    FAIR      29  26  87 SW5       30.23R WCI  24
LIMON          FAIR      20  19  96 W10       30.22R WCI   9
MONUMENT HILL  FAIR      18  16  93 W3        30.22S
CANON CITY     MOCLDY    32  30  93 NE3       30.24S
WALSENBURG     CLOUDY    32  28  86 E12       30.26R WCI  23
TRINIDAD       FLURRIES  30  27  88 NE13      30.26R WCI  20
$$

COZ042>045-048>051-090-091-150200-
...NORTHEAST COLORADO...

CITY           SKY/WX    TMP DP  RH WIND       PRES   REMARKS
GREELEY ARPT   FAIR      31  15  52 N9        30.24R WCI  23
AKRON          FAIR      25  19  78 N8        30.22R WCI  16
BURLINGTON     MOCLDY    31  17  56 N12G21    30.22R WCI  22
WRAY           CLOUDY    32  23  69 NW6       30.24R WCI  26
YUMA           CLOUDY    32  18  55 NW16      30.22S WCI  21
STERLING       FAIR      28  21  74 N6        30.22S WCI  22
HOLYOKE        FAIR      34  23  64 NW9       30.23R WCI  26
FORT MORGAN    FAIR      28  17  65 NW9       30.24S WCI  19
$$

COZ086-089-092>099-150200-
...SOUTHEAST COLORADO...

CITY           SKY/WX    TMP DP  RH WIND       PRES   REMARKS
PUEBLO         FAIR      34  25  69 E3        30.26R
LA JUNTA       FAIR      30  22  72 N7        30.27R WCI  23
LAMAR          FAIR      29  23  78 W7        30.25R WCI  22
SPRINGFIELD      N/A     30  29  96 NW8       30.24R WCI  22
$$




USA.gov is the U.S. government's official web portal to all federal, state and local government web resources and services.